Lovelock, NV

5:44 AM PDT on August 28, 2016 (GMT -0700)
Derby

Weather History for KLOL - January, 2013

Change the Weather History Date:

Friday, January 18, 2013

  Actual Average Record
Temperature  
Mean Temperature 12 °F -  
Max Temperature 28 °F 46 °F 65 °F (1971)
Min Temperature -5 °F 18 °F -20 °F (1949)
Degree Days  
Heating Degree Days 54    
Moisture  
Dew Point 5 °F    
Average Humidity 78    
Maximum Humidity 88    
Minimum Humidity 58    
Precipitation  
Precipitation 0.00 in - - ()
Sea Level Pressure  
Sea Level Pressure 30.65 in    
Wind  
Wind Speed 2 mph (ENE)    
Max Wind Speed 9 mph    
Max Gust Speed -    
Visibility 10 miles    
Events      
Averages and records for this station are not official NWS values.
T = Trace of Precipitation, MM = Missing Value Source: NWS Daily Summary

Daily Weather History Graph

Daily Weather History Graph

Search for Another Location

Airport or City:

Trip Planner

Search our weather history database for the weather conditions in past years. The results will help you decide how hot, cold, wet, or windy it might be!

Date:

Astronomy

Jan. 18, 2013 Rise Set
Actual Time 7:12 AM PST 4:57 PM PST
Civil Twilight 6:43 AM PST 5:26 PM PST
Nautical Twilight 6:10 AM PST 5:59 PM PST
Astronomical Twilight 5:37 AM PST 6:32 PM PST
Moon 10:53 AM PST (1/18) No Moon Set
Length of Visible Light 10h 43m
Length of Day
9h 44m
Waxing Crescent, 48% of the Moon is Illuminated
Jan 18
Waxing Crescent
Jan 18
First Quarter
Jan 26
Full
Feb 3
Last Quarter
Feb 9
New

Hourly Weather History & Observations

Time (PST) Temp. Windchill Dew Point Humidity Pressure Visibility Wind Dir Wind Speed Gust Speed Precip Events Conditions
12:53 AM 3.0 °F - -0.0 °F 87% 30.66 in 10.0 mi Calm Calm - N/A   Clear
1:53 AM -0.9 °F - -4.0 °F 87% 30.66 in 10.0 mi Calm Calm - N/A   Clear
2:53 AM 1.0 °F - -2.9 °F 83% 30.65 in 7.0 mi Calm Calm - N/A   Clear
3:53 AM -5.1 °F -13.6 °F -8.0 °F 87% 30.66 in 9.0 mi South 3.5 mph - N/A   Clear
4:53 AM -2.0 °F - -6.0 °F 83% 30.66 in 10.0 mi Calm Calm - N/A   Clear
5:53 AM -2.9 °F - -7.1 °F 82% 30.68 in 10.0 mi Calm Calm - N/A   Clear
6:53 AM -2.9 °F -11.2 °F -6.0 °F 87% 30.68 in 9.0 mi West 3.5 mph - N/A   Clear
7:53 AM -0.0 °F -11.6 °F -2.9 °F 88% 30.71 in 9.0 mi NE 5.8 mph - N/A   Clear
8:53 AM 8.1 °F - 5.0 °F 87% 30.71 in 10.0 mi Calm Calm - N/A   Clear
9:53 AM 12.9 °F - 9.0 °F 84% 30.71 in 10.0 mi Calm Calm - N/A   Clear
10:53 AM 19.0 °F 11.1 °F 10.9 °F 71% 30.69 in 10.0 mi NE 5.8 mph - N/A   Clear
11:53 AM 24.1 °F 19.7 °F 14.0 °F 65% 30.64 in 10.0 mi Variable 3.5 mph - N/A   Clear
12:53 PM 26.1 °F - 15.1 °F 63% 30.61 in 10.0 mi Calm Calm - N/A   Clear
1:53 PM 28.0 °F 21.7 °F 16.0 °F 61% 30.60 in 10.0 mi Variable 5.8 mph - N/A   Clear
2:53 PM 28.9 °F 23.9 °F 16.0 °F 58% 30.59 in 10.0 mi ESE 4.6 mph - N/A   Clear
3:53 PM 28.9 °F 25.2 °F 16.0 °F 58% 30.60 in 10.0 mi ESE 3.5 mph - N/A   Clear
4:53 PM 25.0 °F 15.5 °F 14.0 °F 63% 30.61 in 10.0 mi NE 9.2 mph - N/A   Clear
5:53 PM 19.0 °F 8.2 °F 12.0 °F 74% 30.64 in 10.0 mi NE 9.2 mph - N/A   Clear
6:53 PM 16.0 °F 4.4 °F 10.0 °F 77% 30.66 in 10.0 mi NNE 9.2 mph - N/A   Clear
7:53 PM 12.9 °F - 8.1 °F 81% 30.66 in 10.0 mi Calm Calm - N/A   Clear
8:53 PM 7.0 °F -1.7 °F 3.9 °F 87% 30.67 in 10.0 mi NNW 4.6 mph - N/A   Clear
9:53 PM 8.1 °F - 5.0 °F 87% 30.66 in 10.0 mi Calm Calm - N/A   Clear
10:53 PM 5.0 °F -6.9 °F 1.0 °F 84% 30.66 in 10.0 mi East 6.9 mph - N/A   Clear
11:53 PM 1.0 °F - -2.0 °F 87% 30.65 in 10.0 mi Calm Calm - N/A   Clear